Current weather by "City, St" or "zip code"  
 

Current Conditions: PORT ARANSAS

Fog/Mist


83.3 F

Last Updated on May 26 2024, 03:15 AM CDT
Humidity: 87%
Wind Speed: 18.3 mph
Barometer 29.72 in
Dewpoint: 79.0 F
Visibility: 5.00 mi
Precip: --
Heat Index: 94.5 F
Wind Chill: NA
Current conditions at:

PORT ARANSAS (KRAS)

Lat: 27.81 Lon: 97.09

active severe weather and emergency alerts image image weather storm and storm spotter reports image weather observation monitoring service image
Active
Alerts
Storm Reports Obs
Monitoring

Sign-up For Email & Text Message Weather Alert Notification Services



Advertise Here

Observation History for PORT ARANSAS


Time Wind
(mph)
Vis
(mi)
Weather Precip (in) Temperature (F) Relative
Humidity
Wind
Chill
(F)
Heat
Index
(F)
Pressure
Air Dwpt altimeter
(in)
sea level
(mb)
Rmks
03:15 AM CDT 18.3 5.00 Fog/Mist -- 83.3 79.0 87% NA 94.5 29.72 1006.4
02:55 AM CDT 15.0 5.00 Fog/Mist -- 83.3 79.0 87% NA 94.5 29.73 1006.8
01:55 AM CDT SE 16.1 7.00 Fog/Mist -- 83.1 78.8 87% NA 93.9 29.73 1006.8
01:35 AM CDT SE 16.1 7.00 Fog/Mist -- 83.3 79.2 87% NA 94.6 29.73 1006.8
12:55 AM CDT SE 13.9 7.00 Fog/Mist -- 83.3 79.2 87% NA 94.6 29.75 1007.5
12:35 AM CDT SE 17.2 7.00 Fog/Mist -- 83.3 79.2 87% NA 94.6 29.76 1007.8
11:55 PM CDT SE 17.2 7.00 Cloudy -- 83.1 78.8 87% NA 93.9 29.77 1008.1
11:35 PM CDT SE 15.0 7.00 Mostly Cloudy -- 83.1 78.8 87% NA 93.9 29.77 1008.1
11:15 PM CDT SE 15.0 7.00 Mostly Cloudy -- 83.1 78.6 86% NA 93.7 29.77 1008.1
10:55 PM CDT SE 15.0 7.00 Mostly Cloudy -- 83.1 78.6 86% NA 93.7 29.76 1007.8
10:35 PM CDT SE 17.2 7.00 Mostly Cloudy -- 83.1 78.8 87% NA 93.9 29.76 1007.8
09:55 PM CDT SE 16.1 7.00 Partly Cloudy -- 83.1 78.3 85% NA 93.4 29.76 1007.8
09:35 PM CDT SE 18.3 7.00 Partly Cloudy -- 83.3 78.3 85% NA 93.7 29.75 1007.5
09:15 PM CDT SE 17.2 10.00 Partly Cloudy -- 83.3 78.1 84% NA 93.6 29.74 1007.1
08:55 PM CDT SE 16.1 10.00 Partly Cloudy -- 83.5 78.3 84% NA 94.1 29.74 1007.1
08:35 PM CDT SE 18.3 7.00 Partly Cloudy -- 83.7 77.9 83% NA 94.1 29.73 1006.8
08:15 PM CDT SE 15.0 7.00 Mostly Cloudy -- 83.8 78.3 83% NA 94.8 29.73 1006.8
07:55 PM CDT SE 17.2 10.00 Partly Cloudy -- 84.2 77.7 81% NA 95.0 29.73 1006.8
06:55 PM CDT SE 18.3 7.00 Cloudy -- 85.6 78.6 80% NA 98.6 29.71 1006.1
06:15 PM CDT 7.00 Mostly Cloudy -- NULL % NA NA M
05:55 PM CDT SE 17.2 10.00 Partly Cloudy -- 87.1 78.8 77% NA 101.3 29.72 1006.4
05:35 PM CDT SE 18.3 10.00 Clear -- 87.6 78.6 75% NA 101.8 29.73 1006.8
04:55 PM CDT SE 16.1 10.00 Clear -- 87.8 78.8 75% NA 102.4 29.73 1006.8
04:35 PM CDT 15.0 10.00 Clear -- 88.0 78.4 73% NA 102.2 29.73 1006.8

Regional Weather Observation


PORT ARANSAS (KRAS)

Fog/Mist
83.3 F

CORPUS CHRISTI (KCRP)

Mostly Cloudy and Windy
82.9 F

C. CHRISTI NAS (KNGP)

Haze
87.1 F

ROBSTOWN/NUECES (KRBO)

Mostly Cloudy
82.4 F

BEEVILLE MUNI (KBEA)

Cloudy
80.1 F

KINGSVILLE NAS (KNQI)

Cloudy
84.9 F

Advertise Here


Advertise Here